Location: Bukit Nyuki
(2.5885°N, 113.7476°E)
Time: 04:30:38
(UTC+00:00)

Atlas 2A Centaur Rocket - Pass Details

Date: 18 May 2021
Orbit: 309 x 19268 km, 27.1° (Epoch: 22 June)

Event Time Altitude Azimuth Distance (km) Brightness Sun altitude
Exits shadow 21:09:09 12° 206° (SSW) 2,567 4.8 -16.1°
Maximum altitude 21:11:48 16° 175° (S) 1,681 4.1 -15.4°
Drops below altitude 10° 21:13:58 10° 132° (SE) 1,586 4.5 -14.9°
Sets 21:15:56 0° 104° (ESE) 2,133 5.8 -14.5°
